الصفحة الرئيسية
METAR-TAF:

METAR-TAF

مطار :

Mackay, أستراليا

دائرة عرض: 21-10-18S, خط طول: 149-10-47E, ارتفاع: 6 متر

مراقبة الطقس الحالي

تاريخ ووقت الإصدار 1ساعة و 26 دقيقة قبل الساعة 01:00UTC
ريح 10 عقدة من الشرق/الجنوب الشرقي
درجة الحرارة 20°درجة مئوية
الرطوبة 43%
ضغط 1018 hPa
الرؤية 10 كم أو أكثر

METAR: YBMK 190100Z AUTO 12010KT 9999 // NCD 20/07 Q1018

زمن: 12:26 (02:26 UTC)


TAF: مفقودة

أرصاد الطقس والتوقعات من أكثر من 4000 مطار (تقارير الطقس للمطار METAR والتنبؤ بالطقس بالمطارTAF).

المحطات المتاحة هي النقط الصفراء والحمراء على الخريطة.

حرك المؤشر فوق النقطة لمعرفة اسم المحطة.

ثم انقر لمعرفة أرصاد وتوقعات الطقس.

لتغيير الخارطة: اضغط على الأزرار الخضراء مع رمز الصليب الأسود للتكبير. على الزر الأخضر مع شرطة للتصغير، أو على الأسهم الخضراء للخرائط المجاورة.


METAR-TAF: